FW5644 Weather Reports


time (UTC)temp
F
wind
direction
speed
knots
gust
knots
rain 1hr
in
rain 24hr
in
rain mn
in
humidity
%
barometer
mb
20200407031656 65 148 6.1 0.0 0.00 0.00 0.00 78 1002.4
20200407024647 65 136 5.2 0.0 0.00 0.00 0.00 76 1002.4
20200407023141 65 138 5.2 0.0 0.00 0.00 0.00 75 1002.3
20200407021613 66 126 5.2 0.0 0.00 0.00 0.00 74 1002.2
20200407014625 67 134 5.2 0.0 0.00 0.00 0.00 72 1001.7
20200407013123 68 128 6.1 0.0 0.00 0.00 0.00 71 1001.5
20200407011600 69 126 5.2 0.0 0.00 0.00 0.00 69 1001.4
20200407004617 71 129 6.1 0.0 0.00 0.00 0.00 64 1001.2
20200407003133 72 134 5.2 0.0 0.00 0.00 0.00 62 1001.3
20200407001701 73 143 7.8 0.0 0.00 0.00 0.00 61 1001.3
20200406234704 74 146 8.7 0.0 0.00 0.00 0.00 59 1001.5
20200406233257 74 130 7.8 0.0 0.00 0.00 0.00 59 1001.4
20200406231631 74 146 9.6 0.0 0.00 0.00 0.00 59 1001.5
20200406224619 74 136 9.6 0.0 0.00 0.00 0.00 61 1001.7
20200406223043 73 123 8.7 0.0 0.00 0.00 0.00 62 1002.0
20200406221627 72 129 10.4 0.0 0.00 0.00 0.00 63 1002.2
20200406214704 72 127 9.6 0.0 0.00 0.00 0.00 63 1002.5
20200406213045 71 121 8.7 0.0 0.00 0.00 0.00 64 1002.5
20200406211603 71 128 9.6 0.0 0.00 0.00 0.00 65 1002.7
20200406204532 69 119 8.7 0.0 0.00 0.00 0.00 71 1003.2
20200406203129 68 120 7.8 0.0 0.00 0.00 0.00 72 1003.5
20200406201607 67 121 7.8 0.0 0.00 0.00 0.00 73 1003.9
20200406194539 67 155 7.0 0.0 0.00 0.00 0.00 72 1004.3
20200406193038 67 150 7.0 0.0 0.00 0.00 0.00 72 1004.4
20200406191517 67 169 8.7 0.0 0.00 0.00 0.00 72 1004.4
20200406184529 66 163 10.4 0.0 0.00 0.00 0.00 74 1004.6
20200406183026 65 146 7.8 0.0 0.00 0.00 0.00 76 1004.8
20200406181517 65 189 9.6 0.0 0.00 0.00 0.00 76 1005.0
20200406174507 63 165 7.8 0.0 0.00 0.00 0.00 80 1005.3
20200406173131 62 139 8.7 0.0 0.00 0.00 0.00 83 1005.4
20200406171729 62 142 8.7 0.0 0.00 0.00 0.00 83 1005.8
20200406164610 62 148 7.8 0.0 0.00 0.00 0.00 84 1006.0
20200406163128 61 149 8.7 0.0 0.00 0.00 0.00 85 1006.1
20200406161751 60 151 11.3 0.0 0.00 0.00 0.00 86 1006.3
20200406154717 59 173 7.8 0.0 0.00 0.00 0.00 88 1006.1
20200406153117 59 147 9.6 0.0 0.00 0.00 0.00 89 1006.4
20200406151740 58 113 8.7 0.0 0.00 0.00 0.00 90 1006.5
20200406144625 57 136 9.6 0.0 0.00 0.00 0.00 90 1006.6
20200406143106 57 126 8.7 0.0 0.00 0.00 0.00 90 1006.8
20200406141559 57 146 9.6 0.0 0.00 0.00 0.00 90 1006.9
20200406134552 56 134 7.8 0.0 0.00 0.00 0.00 90 1007.3
20200406133054 56 130 7.0 0.0 0.00 0.00 0.00 90 1007.4
20200406131557 55 136 6.1 0.0 0.00 0.00 0.00 90 1007.5
20200406124552 55 119 6.1 0.0 0.00 0.00 0.00 91 1007.2
20200406123043 54 121 6.1 0.0 0.00 0.00 0.00 91 1007.3
20200406121558 54 131 4.3 0.0 0.00 0.00 0.00 91 1007.5
20200406114603 54 132 6.1 0.0 0.00 0.00 0.00 90 1007.6
20200406113112 54 136 5.2 0.0 0.00 0.00 0.00 90 1007.7
20200406111634 53 113 6.1 0.0 0.00 0.00 0.00 90 1007.4
20200406104553 53 127 7.0 0.0 0.00 0.00 0.00 89 1007.4
20200406103045 53 123 7.0 0.0 0.00 0.00 0.00 89 1007.3
20200406101555 53 125 7.0 0.0 0.00 0.00 0.00 89 1007.4
20200406094554 53 136 8.7 0.0 0.00 0.00 0.00 88 1007.8
20200406093110 53 130 8.7 0.0 0.00 0.00 0.00 87 1008.1
20200406084529 53 131 8.7 0.0 0.00 0.00 0.00 86 1008.5
20200406083022 52 125 7.0 0.0 0.00 0.00 0.00 85 1008.9
20200406081516 52 126 6.1 0.0 0.00 0.00 0.00 84 1009.1
20200406074511 52 119 7.0 0.0 0.00 0.00 0.00 83 1009.3
20200406073013 52 123 7.8 0.0 0.00 0.00 0.00 83 1009.7
20200406071508 52 128 7.8 0.0 0.00 0.00 0.00 82 1009.9
20200406064506 53 117 7.8 0.0 0.00 0.00 0.00 81 1010.4
20200406063011 53 129 7.8 0.0 0.00 0.00 0.00 80 1010.4
20200406061502 53 125 10.4 0.0 0.00 0.00 0.00 79 1010.5
20200406054502 53 126 8.7 0.0 0.00 0.00 0.00 78 1011.0
20200406053003 53 130 7.8 0.0 0.00 0.00 0.00 78 1010.9
20200406051502 53 128 8.7 0.0 0.00 0.00 0.00 77 1010.8
20200406044502 54 134 9.6 0.0 0.00 0.00 0.00 75 1011.1
20200406043152 54 135 8.7 0.0 0.00 0.00 0.00 74 1011.0
20200406041623 54 118 8.7 0.0 0.00 0.00 0.00 73 1011.1
20200406034502 54 132 8.7 0.0 0.00 0.00 0.00 72 1010.8
20200406033005 54 109 7.8 0.0 0.00 0.00 0.00 71 1010.7